Gastonia, NC

5:25 PM EDT on April 20, 2018 (GMT -0400)
Gastonia Municipal

Weather History for KAKH - May, 2013

Change the Weather History Date:

Sunday, May 5, 2013

  Actual Average (KCLT) Record (KCLT)
Temperature  
Mean Temperature 55 °F -  
Max Temperature 60 °F 76 °F 91 °F (1955)
Min Temperature 51 °F 49 °F 36 °F (1940)
Degree Days  
Heating Degree Days 10    
Growing Degree Days 5 (Base 50)    
Moisture  
Dew Point 52 °F    
Average Humidity 94    
Maximum Humidity 100    
Minimum Humidity 81    
Precipitation  
Precipitation 0.61 in - - ()
Sea Level Pressure  
Sea Level Pressure 29.92 in    
Wind  
Wind Speed 12 mph (ENE)    
Max Wind Speed 18 mph    
Max Gust Speed 32 mph    
Visibility 6 miles    
Events Rain    
Averages and records for this station are not official NWS values.
T = Trace of Precipitation, MM = Missing Value Source: NWS Daily Summary

Daily Weather History Graph

Daily Weather History Graph

Search for Another Location

Airport or City:

Astronomy

May. 05, 2013 Rise Set
Actual Time 6:29 AM EDT 8:13 PM EDT
Civil Twilight 6:01 AM EDT 8:41 PM EDT
Nautical Twilight 5:28 AM EDT 9:14 PM EDT
Astronomical Twilight 4:53 AM EDT 9:49 PM EDT
Moon 3:49 AM EDT (5/5) 4:20 PM EDT (5/5)
Length of Visible Light 14h 39m
Length of Day
13h 44m
Waning Crescent, 18% of the Moon is Illuminated
May 5
Waning Crescent
May 9
New
May 18
First Quarter
May 25
Full
May 31
Last Quarter

Hourly Weather History & Observations

Time (EDT) Temp. Dew Point Humidity Pressure Visibility Wind Dir Wind Speed Gust Speed Precip Events Conditions
12:54 AM 57.0 °F 51.1 °F 81% 30.03 in 10.0 mi NE 10.4 mph - N/A   Overcast
1:54 AM 55.9 °F 51.1 °F 84% 29.99 in 10.0 mi NE 13.8 mph - N/A   Overcast
2:54 AM 55.0 °F 50.0 °F 83% 29.96 in 8.0 mi NE 12.7 mph 20.7 mph 0.00 in Rain Light Rain
3:28 AM 53.6 °F 51.8 °F 94% 29.97 in 4.0 mi ENE 11.5 mph - 0.00 in Rain Light Rain
3:41 AM 53.6 °F 51.8 °F 94% 29.96 in 3.0 mi NE 12.7 mph 20.7 mph 0.00 in Rain Light Rain
3:54 AM 53.1 °F 51.1 °F 93% 29.96 in 7.0 mi NE 11.5 mph - 0.01 in Rain Light Rain
4:28 AM 51.8 °F 50.0 °F 94% 29.94 in 10.0 mi ENE 18.4 mph 25.3 mph 0.00 in Rain Light Rain
4:54 AM 52.0 °F 50.0 °F 93% 29.94 in 10.0 mi NE 13.8 mph 25.3 mph 0.00 in   Overcast
5:07 AM 51.8 °F 50.0 °F 94% 29.94 in 10.0 mi NE 13.8 mph 20.7 mph N/A   Overcast
5:36 AM 51.8 °F 48.2 °F 88% 29.93 in 10.0 mi NE 15.0 mph 21.9 mph N/A   Overcast
5:54 AM 52.0 °F 48.0 °F 86% 29.94 in 10.0 mi NE 12.7 mph 24.2 mph 0.00 in Rain Light Rain
6:54 AM 52.0 °F 48.0 °F 86% 29.94 in 10.0 mi NE 15.0 mph 19.6 mph 0.00 in   Overcast
7:54 AM 53.1 °F 48.0 °F 83% 29.95 in 10.0 mi NE 15.0 mph 21.9 mph N/A   Overcast
8:54 AM 52.0 °F 48.9 °F 89% 29.94 in 5.0 mi ENE 15.0 mph 24.2 mph 0.03 in Rain Light Rain
9:54 AM 52.0 °F 48.9 °F 89% 29.95 in 4.0 mi ENE 11.5 mph - 0.01 in Rain Light Rain
10:04 AM 51.8 °F 48.2 °F 88% 29.97 in 5.0 mi ENE 10.4 mph - 0.00 in Rain Light Rain
10:54 AM 51.1 °F 50.0 °F 96% 29.96 in 2.5 mi NE 11.5 mph - 0.05 in Rain Rain
11:21 AM 51.8 °F 50.0 °F 94% 29.95 in 4.0 mi NE 10.4 mph - 0.04 in Rain Light Rain
11:29 AM 51.8 °F 50.0 °F 94% 29.96 in 7.0 mi NE 13.8 mph - 0.04 in   Overcast
11:54 AM 51.1 °F 50.0 °F 96% 29.96 in 6.0 mi ENE 10.4 mph - 0.05 in Rain Light Rain
12:54 PM 52.0 °F 51.1 °F 97% 29.96 in 7.0 mi NE 10.4 mph - 0.02 in Rain Light Rain
1:10 PM 51.8 °F 51.8 °F 100% 29.97 in 2.5 mi NE 8.1 mph - 0.03 in Rain Rain
1:31 PM 51.8 °F 51.8 °F 100% 29.95 in 4.0 mi NE 12.7 mph - 0.09 in Rain Light Rain
2:38 PM 51.8 °F 51.8 °F 100% 29.92 in 2.5 mi NE 15.0 mph - 0.10 in Rain Rain
2:50 PM 53.6 °F 51.8 °F 94% 29.92 in 4.0 mi NE 11.5 mph - 0.11 in Rain Light Rain
2:54 PM 53.1 °F 52.0 °F 96% 29.92 in 4.0 mi NE 11.5 mph - 0.11 in Rain Light Rain
3:54 PM 54.0 °F 53.1 °F 97% 29.89 in 4.0 mi NE 10.4 mph 25.3 mph 0.04 in Rain Light Rain
4:23 PM 53.6 °F 53.6 °F 100% 29.89 in 1.8 mi ENE 10.4 mph 19.6 mph 0.03 in Rain Heavy Rain
4:45 PM 55.4 °F 53.6 °F 94% 29.89 in 2.0 mi ENE 11.5 mph - 0.08 in Rain Rain
4:54 PM 55.0 °F 54.0 °F 96% 29.88 in 2.0 mi NE 10.4 mph - 0.09 in Rain Rain
5:12 PM 55.4 °F 53.6 °F 94% 29.88 in 1.5 mi ENE 9.2 mph - 0.03 in Rain Rain
5:30 PM 55.4 °F 55.4 °F 100% 29.88 in 1.2 mi ENE 8.1 mph - 0.08 in Rain Rain
5:40 PM 55.4 °F 55.4 °F 100% 29.88 in 3.0 mi ENE 10.4 mph - 0.09 in Rain Light Rain
5:44 PM 55.4 °F 55.4 °F 100% 29.88 in 2.5 mi ENE 9.2 mph - 0.09 in Rain Light Rain
5:52 PM 55.4 °F 55.4 °F 100% 29.88 in 4.0 mi ENE 8.1 mph 19.6 mph 0.09 in Rain Light Rain
5:54 PM 55.9 °F 55.0 °F 97% 29.88 in 3.0 mi ENE 9.2 mph 19.6 mph 0.10 in Rain Light Rain
5:57 PM 55.4 °F 55.4 °F 100% 29.88 in 2.5 mi ENE 9.2 mph - 0.00 in Rain Rain
6:12 PM 55.4 °F 55.4 °F 100% 29.87 in 4.0 mi ENE 9.2 mph - 0.01 in Rain Light Rain
6:54 PM 55.9 °F 55.0 °F 97% 29.87 in 9.0 mi ENE 11.5 mph 18.4 mph 0.01 in Rain Light Rain
7:17 PM 57.2 °F 55.4 °F 94% 29.85 in 8.0 mi ENE 13.8 mph 21.9 mph 0.01 in   Overcast
8:54 PM 59.0 °F 57.0 °F 93% 29.86 in 10.0 mi ENE 13.8 mph 21.9 mph 0.00 in   Overcast
9:54 PM 59.0 °F 57.9 °F 96% 29.85 in 9.0 mi East 11.5 mph 21.9 mph N/A   Overcast
10:54 PM 59.0 °F 57.9 °F 96% 29.85 in 5.0 mi East 9.2 mph 18.4 mph 0.04 in Rain Light Rain
11:54 PM 60.1 °F 57.9 °F 93% 29.83 in 7.0 mi East 16.1 mph 32.2 mph 0.05 in Rain Light Rain